| time (UTC) | temp F | wind direction | speed knots | gust knots | rain 1hr in | rain 24hr in | rain mn in | humidity % | barometer mb |
| 20260509120904 | 44 | 112 | 0.0 | 0.9 | 0.00 | 0.00 | 0.00 | 56 | 1021.9 |
| 20260509114804 | 44 | 136 | 0.0 | 0.0 | 0.00 | 0.00 | 0.00 | 55 | 1021.7 |
| 20260509112702 | 45 | 80 | 0.0 | 2.6 | 0.00 | 0.00 | 0.00 | 55 | 1021.6 |
| 20260509111703 | 45 | 126 | 0.9 | 1.7 | 0.00 | 0.00 | 0.00 | 55 | 1021.6 |
| 20260509110704 | 45 | 176 | 0.9 | 3.5 | 0.00 | 0.00 | 0.00 | 54 | 1021.5 |
| 20260509105702 | 46 | 260 | 0.0 | 1.7 | 0.00 | 0.00 | 0.00 | 53 | 1021.5 |
| 20260509104703 | 46 | 185 | 0.0 | 2.6 | 0.00 | 0.00 | 0.00 | 52 | 1021.5 |
| 20260509103703 | 46 | 244 | 0.0 | 1.7 | 0.00 | 0.00 | 0.00 | 51 | 1021.5 |
| 20260509102702 | 46 | 68 | 1.7 | 8.7 | 0.00 | 0.00 | 0.00 | 51 | 1021.5 |
| 20260509101702 | 46 | 30 | 0.0 | 3.5 | 0.00 | 0.00 | 0.00 | 51 | 1021.5 |
| 20260509100703 | 46 | 124 | 1.7 | 0.0 | 0.00 | 0.00 | 0.00 | 52 | 1021.6 |
| 20260509094603 | 46 | 205 | 0.0 | 7.0 | 0.00 | 0.00 | 0.00 | 51 | 1021.6 |
| 20260509092504 | 46 | 126 | 0.9 | 6.1 | 0.00 | 0.00 | 0.00 | 52 | 1021.5 |
| 20260509091502 | 47 | 154 | 0.9 | 1.7 | 0.00 | 0.00 | 0.00 | 51 | 1021.5 |
| 20260509090503 | 47 | 202 | 0.0 | 8.7 | 0.00 | 0.00 | 0.00 | 50 | 1021.5 |
| 20260509085503 | 47 | 123 | 0.0 | 1.7 | 0.00 | 0.00 | 0.00 | 50 | 1021.5 |
| 20260509084502 | 48 | 148 | 0.9 | 3.5 | 0.00 | 0.00 | 0.00 | 50 | 1021.5 |
| 20260509082404 | 49 | 104 | 0.0 | 1.7 | 0.00 | 0.00 | 0.00 | 47 | 1021.5 |
| 20260509080303 | 50 | 145 | 0.0 | 2.6 | 0.00 | 0.00 | 0.00 | 45 | 1021.3 |
| 20260509074203 | 49 | 234 | 2.6 | 2.6 | 0.00 | 0.00 | 0.00 | 46 | 1021.1 |
| 20260509073203 | 50 | 169 | 1.7 | 8.7 | 0.00 | 0.00 | 0.00 | 45 | 1021.3 |
| 20260509072202 | 50 | 241 | 0.0 | 5.2 | 0.00 | 0.00 | 0.00 | 45 | 1021.2 |
| 20260509071203 | 50 | 360 | 1.7 | 3.5 | 0.00 | 0.00 | 0.00 | 45 | 1021.3 |
| 20260509070203 | 50 | 229 | 0.0 | 7.8 | 0.00 | 0.00 | 0.00 | 45 | 1021.3 |
| 20260509065204 | 50 | 360 | 1.7 | 1.7 | 0.00 | 0.00 | 0.00 | 44 | 1021.3 |
| 20260509064204 | 50 | 200 | 0.9 | 5.2 | 0.00 | 0.00 | 0.00 | 44 | 1021.6 |
| 20260509063203 | 50 | 237 | 0.9 | 2.6 | 0.00 | 0.00 | 0.00 | 44 | 1021.6 |
| 20260509062204 | 50 | 123 | 0.9 | 5.2 | 0.00 | 0.00 | 0.00 | 44 | 1021.7 |
| 20260509061204 | 50 | 133 | 0.0 | 7.8 | 0.00 | 0.00 | 0.00 | 45 | 1021.7 |
| 20260509060203 | 51 | 198 | 2.6 | 3.5 | 0.00 | 0.00 | 0.00 | 44 | 1021.7 |
| 20260509055203 | 51 | 360 | 3.5 | 8.7 | 0.00 | 0.00 | 0.00 | 43 | 1021.7 |
| 20260509054204 | 51 | 360 | 0.9 | 7.8 | 0.00 | 0.00 | 0.00 | 43 | 1021.7 |
| 20260509053202 | 51 | 72 | 0.0 | 3.5 | 0.00 | 0.00 | 0.00 | 43 | 1021.7 |
| 20260509051103 | 52 | 99 | 0.0 | 7.8 | 0.00 | 0.00 | 0.00 | 42 | 1021.7 |
| 20260509045003 | 52 | 175 | 0.9 | 6.1 | 0.00 | 0.00 | 0.00 | 41 | 1021.9 |
| 20260509044004 | 53 | 120 | 0.0 | 3.5 | 0.00 | 0.00 | 0.00 | 41 | 1021.7 |
| 20260509043002 | 53 | 179 | 0.0 | 3.5 | 0.00 | 0.00 | 0.00 | 40 | 1021.9 |
| 20260509042003 | 54 | 333 | 0.9 | 6.1 | 0.00 | 0.00 | 0.00 | 39 | 1021.9 |
| 20260509035903 | 54 | 155 | 0.0 | 7.8 | 0.00 | 0.00 | 0.00 | 39 | 1021.7 |
| 20260509034902 | 54 | 147 | 1.7 | 7.8 | 0.00 | 0.00 | 0.00 | 39 | 1021.6 |
| 20260509033903 | 55 | 320 | 0.0 | 8.7 | 0.00 | 0.00 | 0.00 | 38 | 1021.6 |
| 20260509032903 | 55 | 172 | 0.0 | 2.6 | 0.00 | 0.00 | 0.00 | 39 | 1021.5 |
| 20260509031904 | 55 | 150 | 0.9 | 3.5 | 0.00 | 0.00 | 0.00 | 38 | 1021.3 |
| 20260509030904 | 56 | 130 | 0.9 | 1.7 | 0.00 | 0.00 | 0.00 | 37 | 1021.2 |
| 20260509025903 | 57 | 107 | 0.0 | 2.6 | 0.00 | 0.00 | 0.00 | 37 | 1021.1 |
| 20260509024904 | 57 | 169 | 0.0 | 2.6 | 0.00 | 0.00 | 0.00 | 36 | 1020.9 |
| 20260509023904 | 58 | 265 | 0.0 | 1.7 | 0.00 | 0.00 | 0.00 | 34 | 1020.7 |
| 20260509022903 | 59 | 205 | 0.9 | 5.2 | 0.00 | 0.00 | 0.00 | 32 | 1020.5 |
| 20260509021903 | 59 | 360 | 0.0 | 7.0 | 0.00 | 0.00 | 0.00 | 30 | 1020.3 |
| 20260509020902 | 60 | 152 | 0.0 | 3.5 | 0.00 | 0.00 | 0.00 | 31 | 1020.1 |
| 20260509015902 | 61 | 263 | 1.7 | 7.8 | 0.00 | 0.00 | 0.00 | 28 | 1019.9 |
| 20260509014903 | 62 | 360 | 1.7 | 7.8 | 0.00 | 0.00 | 0.00 | 28 | 1019.9 |
| 20260509013904 | 63 | 217 | 0.0 | 8.7 | 0.00 | 0.00 | 0.00 | 26 | 1019.7 |
| 20260509012902 | 64 | 360 | 0.9 | 7.0 | 0.00 | 0.00 | 0.00 | 23 | 1019.7 |
| 20260509010803 | 65 | 330 | 2.6 | 6.1 | 0.00 | 0.00 | 0.00 | 17 | 1019.5 |
| 20260509005803 | 66 | 48 | 0.0 | 3.5 | 0.00 | 0.00 | 0.00 | 17 | 1019.5 |
| 20260509004802 | 66 | 54 | 0.9 | 13.9 | 0.00 | 0.00 | 0.00 | 15 | 1019.6 |
| 20260509003803 | 67 | 360 | 5.2 | 13.9 | 0.00 | 0.00 | 0.00 | 15 | 1019.6 |
| 20260509002803 | 68 | 343 | 2.6 | 7.8 | 0.00 | 0.00 | 0.00 | 15 | 1019.5 |
| 20260509001802 | 68 | 350 | 4.3 | 16.5 | 0.00 | 0.00 | 0.00 | 15 | 1019.5 |
| 20260509000804 | 68 | 357 | 3.5 | 13.9 | 0.00 | 0.00 | 0.00 | 15 | 1019.6 |
| 20260508235803 | 68 | 298 | 0.9 | 7.8 | 0.00 | 0.00 | 0.00 | 15 | 1019.5 |
| 20260508232603 | 69 | 353 | 7.8 | 7.8 | 0.00 | 0.00 | 0.00 | 14 | 1019.2 |
| 20260508231604 | 69 | 360 | 5.2 | 13.0 | 0.00 | 0.00 | 0.00 | 14 | 1019.3 |
| 20260508230602 | 69 | 203 | 1.7 | 11.3 | 0.00 | 0.00 | 0.00 | 15 | 1019.2 |
| 20260508225602 | 69 | 35 | 4.3 | 12.2 | 0.00 | 0.00 | 0.00 | 15 | 1019.2 |
| 20260508224603 | 70 | 360 | 4.3 | 13.0 | 0.00 | 0.00 | 0.00 | 15 | 1019.2 |
| 20260508222503 | 68 | 182 | 6.1 | 10.4 | 0.00 | 0.00 | 0.00 | 15 | 1019.2 |
| 20260508221503 | 69 | 25 | 7.0 | 9.6 | 0.00 | 0.00 | 0.00 | 15 | 1019.3 |
| 20260508220504 | 69 | 40 | 7.0 | 16.5 | 0.00 | 0.00 | 0.00 | 16 | 1019.3 |
| 20260508215503 | 69 | 17 | 12.2 | 19.1 | 0.00 | 0.00 | 0.00 | 14 | 1019.5 |
| 20260508213403 | 69 | 54 | 5.2 | 10.4 | 0.00 | 0.00 | 0.00 | 16 | 1019.6 |
| 20260508211303 | 68 | 10 | 4.3 | 13.9 | 0.00 | 0.00 | 0.00 | 16 | 1019.6 |
| 20260508210304 | 68 | 23 | 1.7 | 6.1 | 0.00 | 0.00 | 0.00 | 18 | 1019.7 |
| 20260508205306 | 68 | 35 | 2.6 | 6.1 | 0.00 | 0.00 | 0.00 | 19 | 1020.0 |
| 20260508204303 | 68 | 292 | 0.9 | 7.8 | 0.00 | 0.00 | 0.00 | 18 | 1020.0 |
| 20260508203304 | 67 | 0 | 2.6 | 11.3 | 0.00 | 0.00 | 0.00 | 19 | 1020.0 |
| 20260508202307 | 67 | 0 | 3.5 | 5.2 | 0.00 | 0.00 | 0.00 | 19 | 1020.3 |
| 20260508201303 | 68 | 295 | 0.9 | 7.8 | 0.00 | 0.00 | 0.00 | 19 | 1020.4 |
| 20260508195203 | 67 | 23 | 2.6 | 9.6 | 0.00 | 0.00 | 0.00 | 20 | 1020.4 |
| 20260508192003 | 68 | 360 | 3.5 | 8.7 | 0.00 | 0.00 | 0.00 | 20 | 1020.4 |
| 20260508191004 | 67 | 34 | 0.9 | 9.6 | 0.00 | 0.00 | 0.00 | 22 | 1020.4 |
| 20260508190002 | 67 | 25 | 4.3 | 10.4 | 0.00 | 0.00 | 0.00 | 19 | 1020.4 |
| 20260508185003 | 67 | 360 | 4.3 | 8.7 | 0.00 | 0.00 | 0.00 | 18 | 1020.4 |
| 20260508184004 | 67 | 326 | 1.7 | 10.4 | 0.00 | 0.00 | 0.00 | 19 | 1020.5 |
| 20260508183002 | 67 | 25 | 1.7 | 10.4 | 0.00 | 0.00 | 0.00 | 19 | 1020.7 |
| 20260508182003 | 67 | 27 | 5.2 | 9.6 | 0.00 | 0.00 | 0.00 | 19 | 1020.9 |
| 20260508181003 | 67 | 333 | 2.6 | 9.6 | 0.00 | 0.00 | 0.00 | 19 | 1020.9 |
| 20260508174904 | 66 | 16 | 0.0 | 9.6 | 0.00 | 0.00 | 0.00 | 20 | 1021.1 |
| 20260508173904 | 65 | 326 | 0.9 | 7.8 | 0.00 | 0.00 | 0.00 | 20 | 1021.1 |
| 20260508172903 | 65 | 0 | 5.2 | 7.0 | 0.00 | 0.00 | 0.00 | 22 | 1021.2 |
| 20260508171903 | 65 | 326 | 4.3 | 5.2 | 0.00 | 0.00 | 0.00 | 20 | 1021.2 |
| 20260508170904 | 65 | 3 | 0.0 | 5.2 | 0.00 | 0.00 | 0.00 | 21 | 1021.2 |
| 20260508165903 | 65 | 339 | 1.7 | 7.8 | 0.00 | 0.00 | 0.00 | 22 | 1021.2 |
| 20260508164903 | 64 | 356 | 2.6 | 10.4 | 0.00 | 0.00 | 0.00 | 22 | 1021.3 |
| 20260508163904 | 63 | 10 | 3.5 | 12.2 | 0.00 | 0.00 | 0.00 | 24 | 1021.5 |
| 20260508161802 | 63 | 360 | 4.3 | 15.6 | 0.00 | 0.00 | 0.00 | 23 | 1021.3 |
| 20260508160803 | 62 | 18 | 6.1 | 13.9 | 0.00 | 0.00 | 0.00 | 25 | 1021.3 |
| 20260508155803 | 62 | 99 | 4.3 | 11.3 | 0.00 | 0.00 | 0.00 | 25 | 1021.5 |
| 20260508154802 | 61 | 47 | 7.8 | 13.9 | 0.00 | 0.00 | 0.00 | 25 | 1021.5 |
| 20260508153803 | 61 | 3 | 2.6 | 6.1 | 0.00 | 0.00 | 0.00 | 27 | 1021.5 |
| 20260508152803 | 60 | 360 | 0.9 | 13.9 | 0.00 | 0.00 | 0.00 | 29 | 1021.6 |
| 20260508151804 | 59 | 45 | 2.6 | 8.7 | 0.00 | 0.00 | 0.00 | 30 | 1021.6 |
| 20260508150805 | 58 | 16 | 5.2 | 10.4 | 0.00 | 0.00 | 0.00 | 32 | 1021.6 |
| 20260508144703 | 55 | 76 | 0.0 | 3.5 | 0.00 | 0.00 | 0.00 | 40 | 1021.9 |
| 20260508143703 | 54 | 56 | 0.9 | 1.7 | 0.00 | 0.00 | 0.00 | 46 | 1021.9 |
| 20260508142704 | 53 | 20 | 0.0 | 0.9 | 0.00 | 0.00 | 0.00 | 50 | 1021.9 |
| 20260508141703 | 52 | 198 | 0.0 | 0.9 | 0.00 | 0.00 | 0.00 | 52 | 1021.9 |
| 20260508140704 | 50 | 198 | 0.0 | 0.0 | 0.00 | 0.00 | 0.00 | 60 | 1022.0 |
| 20260508135704 | 48 | 198 | 0.0 | 0.0 | 0.00 | 0.00 | 0.00 | 62 | 1022.1 |
| 20260508134703 | 48 | 198 | 0.0 | 1.7 | 0.00 | 0.00 | 0.00 | 62 | 1022.0 |
| 20260508132603 | 47 | 52 | 0.9 | 2.6 | 0.00 | 0.00 | 0.00 | 63 | 1021.9 |
| 20260508131603 | 47 | 200 | 0.0 | 2.6 | 0.00 | 0.00 | 0.00 | 62 | 1021.7 |
| 20260508130604 | 46 | 117 | 0.0 | 1.7 | 0.00 | 0.00 | 0.00 | 62 | 1021.6 |
| 20260508125604 | 46 | 195 | 0.0 | 0.0 | 0.00 | 0.00 | 0.00 | 62 | 1021.6 |
| 20260508123503 | 46 | 56 | 0.0 | 0.0 | 0.00 | 0.00 | 0.00 | 63 | 1021.3 |
| 20260508122503 | 46 | 56 | 0.0 | 0.0 | 0.00 | 0.00 | 0.00 | 63 | 1021.3 |